�������l�o���
Date,Time,MP-1(��Sv/h),MP-2(��Sv/h),MP-3(��Sv/h),MP-4(��Sv/h),MP-5(��Sv/h),MP-6(��Sv/h),MP-7(��Sv/h),MP-8(��Sv/h),����,����(m/s),���J
2023/04/26,00:00,0.577,0.848,0.507,1.063,0.750,0.326,0.586,0.553,��,10.6,��
2023/04/26,00:10,0.577,0.846,0.505,1.061,0.748,0.327,0.585,0.554,��,10.2,��
2023/04/26,00:20,0.575,0.847,0.507,1.065,0.749,0.327,0.587,0.552,��쓌,9.8,��
2023/04/26,00:30,0.577,0.844,0.506,1.061,0.749,0.328,0.587,0.553,��,10.2,��
2023/04/26,00:40,0.578,0.846,0.506,1.064,0.749,0.326,0.585,0.553,��,8.8,��
2023/04/26,00:50,0.577,0.844,0.504,1.064,0.749,0.326,0.586,0.554,��,8.9,��
2023/04/26,01:00,0.578,0.844,0.505,1.064,0.750,0.328,0.586,0.553,��,10.0,��
2023/04/26,01:10,0.577,0.846,0.506,1.064,0.749,0.328,0.585,0.552,��,9.9,��
2023/04/26,01:20,0.576,0.846,0.506,1.064,0.747,0.328,0.585,0.553,��,9.7,��
2023/04/26,01:30,0.579,0.846,0.507,1.063,0.749,0.328,0.585,0.553,��,8.5,��
2023/04/26,01:40,0.577,0.846,0.506,1.063,0.747,0.326,0.587,0.555,��,10.0,��
2023/04/26,01:50,0.576,0.845,0.506,1.062,0.747,0.326,0.586,0.555,��,10.3,��
2023/04/26,02:00,0.578,0.848,0.507,1.063,0.749,0.328,0.587,0.553,��,9.1,�L
2023/04/26,02:10,0.577,0.845,0.506,1.066,0.749,0.329,0.586,0.553,��,7.6,�L
2023/04/26,02:20,0.578,0.849,0.506,1.062,0.750,0.327,0.589,0.553,��,10.6,�L
2023/04/26,02:30,0.579,0.848,0.508,1.065,0.748,0.330,0.587,0.554,��,8.9,�L
2023/04/26,02:40,0.580,0.847,0.507,1.064,0.751,0.327,0.587,0.553,��,10.6,�L
2023/04/26,02:50,0.579,0.846,0.507,1.066,0.750,0.329,0.586,0.554,��,10.5,�L
2023/04/26,03:00,0.580,0.846,0.506,1.064,0.750,0.330,0.587,0.554,��쐼,8.4,�L
2023/04/26,03:10,0.579,0.848,0.508,1.063,0.751,0.331,0.586,0.555,��,9.5,�L
2023/04/26,03:20,0.580,0.849,0.506,1.064,0.751,0.329,0.587,0.554,��,10.3,�L
2023/04/26,03:30,0.580,0.847,0.508,1.066,0.751,0.331,0.586,0.554,��쐼,8.6,�L
2023/04/26,03:40,0.580,0.848,0.507,1.065,0.751,0.330,0.587,0.553,��,9.2,�L
2023/04/26,03:50,0.579,0.849,0.508,1.065,0.752,0.331,0.587,0.555,��,8.7,�L
2023/04/26,04:00,0.579,0.848,0.506,1.066,0.751,0.331,0.585,0.554,��쐼,8.4,�L
2023/04/26,04:10,0.579,0.846,0.508,1.063,0.752,0.330,0.587,0.553,��,7.8,�L
2023/04/26,04:20,0.580,0.847,0.507,1.064,0.751,0.331,0.584,0.554,��,7.2,�L
2023/04/26,04:30,0.578,0.848,0.508,1.063,0.750,0.331,0.585,0.555,��,8.6,�L
2023/04/26,04:40,0.579,0.847,0.508,1.067,0.751,0.330,0.584,0.554,��,8.8,�L
2023/04/26,04:50,0.578,0.848,0.506,1.063,0.749,0.330,0.586,0.553,��,8.7,�L
2023/04/26,05:00,0.579,0.845,0.507,1.064,0.750,0.331,0.586,0.551,��,8.0,�L
2023/04/26,05:10,0.578,0.846,0.505,1.063,0.749,0.329,0.584,0.553,��,8.0,�L
2023/04/26,05:20,0.578,0.846,0.506,1.062,0.750,0.329,0.582,0.552,��,8.3,�L
2023/04/26,05:30,0.579,0.844,0.505,1.064,0.748,0.330,0.584,0.553,��,8.3,�L
2023/04/26,05:40,0.580,0.845,0.505,1.064,0.749,0.330,0.585,0.552,��,9.0,�L
2023/04/26,05:50,0.578,0.845,0.505,1.063,0.748,0.328,0.587,0.552,��,7.7,�L
2023/04/26,06:00,0.577,0.844,0.505,1.063,0.747,0.328,0.587,0.552,��,5.7,�L
2023/04/26,06:10,0.576,0.843,0.504,1.062,0.746,0.330,0.585,0.552,��,6.2,�L
2023/04/26,06:20,0.575,0.839,0.504,1.061,0.742,0.329,0.585,0.550,��,7.2,�L
2023/04/26,06:30,0.571,0.833,0.501,1.057,0.736,0.328,0.582,0.548,��,6.7,�L
2023/04/26,06:40,0.570,0.827,0.498,1.050,0.731,0.327,0.580,0.547,��,7.3,�L
2023/04/26,06:50,0.568,0.824,0.498,1.046,0.730,0.327,0.578,0.546,��,7.8,�L
2023/04/26,07:00,0.568,0.820,0.497,1.044,0.726,0.328,0.578,0.544,��,9.2,�L
2023/04/26,07:10,0.567,0.822,0.499,1.043,0.724,0.326,0.577,0.544,��,9.2,�L
2023/04/26,07:20,0.568,0.820,0.495,1.040,0.724,0.327,0.578,0.543,��,9.6,�L
2023/04/26,07:30,0.566,0.820,0.496,1.039,0.723,0.326,0.576,0.544,��,8.4,�L
2023/04/26,07:40,0.565,0.818,0.494,1.037,0.722,0.326,0.577,0.542,��,7.8,�L
2023/04/26,07:50,0.564,0.815,0.494,1.037,0.720,0.325,0.576,0.542,��,7.6,�L
2023/04/26,08:00,0.563,0.814,0.495,1.033,0.718,0.324,0.575,0.542,��,7.7,�L
2023/04/26,08:10,0.562,0.814,0.495,1.030,0.714,0.324,0.574,0.540,��,7.5,�L
2023/04/26,08:20,0.561,0.810,0.493,1.026,0.712,0.324,0.573,0.539,��,8.7,�L
2023/04/26,08:30,0.560,0.807,0.492,1.022,0.712,0.324,0.573,0.539,��,9.0,�L
2023/04/26,08:40,0.559,0.807,0.492,1.025,0.710,0.325,0.574,0.540,��,9.3,�L
2023/04/26,08:50,0.558,0.805,0.491,1.018,0.710,0.325,0.571,0.540,��,9.5,�L
2023/04/26,09:00,0.558,0.805,0.491,1.017,0.705,0.323,0.570,0.539,��,9.6,�L
2023/04/26,09:10,0.559,0.803,0.492,1.016,0.707,0.325,0.571,0.540,��,8.5,�L
2023/04/26,09:20,0.557,0.802,0.492,1.013,0.706,0.324,0.570,0.538,��,9.0,�L
2023/04/26,09:30,0.557,0.800,0.492,1.011,0.706,0.324,0.569,0.539,��,9.5,�L
2023/04/26,09:40,0.558,0.802,0.492,1.011,0.704,0.325,0.572,0.539,��,9.3,�L
2023/04/26,09:50,0.557,0.803,0.493,1.012,0.707,0.323,0.570,0.539,��,10.5,�L
2023/04/26,10:00,0.557,0.799,0.497,1.009,0.705,0.322,0.568,0.538,��,10.0,�L
2023/04/26,10:10,0.556,0.798,0.491,1.009,0.703,0.324,0.570,0.538,��,11.4,�L
2023/04/26,10:20,0.554,0.797,0.490,1.006,0.703,0.324,0.570,0.537,��,11.6,�L
2023/04/26,10:30,0.555,0.797,0.492,1.005,0.704,0.324,0.569,0.538,��,10.9,�L
2023/04/26,10:40,0.554,0.797,0.491,1.004,0.703,0.324,0.570,0.538,��,10.7,�L
2023/04/26,10:50,0.556,0.798,0.493,1.004,0.705,0.323,0.570,0.538,��,12.2,�L
2023/04/26,11:00,0.553,0.798,0.491,1.004,0.704,0.324,0.569,0.537,��,11.7,�L
2023/04/26,11:10,0.555,0.799,0.490,1.004,0.704,0.323,0.569,0.537,��,9.9,�L
2023/04/26,11:20,0.556,0.793,0.489,1.004,0.702,0.322,0.570,0.539,��,10.3,�L
2023/04/26,11:30,0.554,0.798,0.488,1.004,0.702,0.321,0.569,0.538,��,11.3,��
2023/04/26,11:40,0.555,0.797,0.487,1.002,0.702,0.320,0.568,0.537,��,11.6,��
2023/04/26,11:50,0.552,0.796,0.486,1.003,0.698,0.319,0.569,0.538,��,10.9,�L
2023/04/26,12:00,0.554,0.798,0.487,1.002,0.701,0.319,0.568,0.540,��,12.5,�L
2023/04/26,12:10,0.551,0.795,0.487,1.001,0.702,0.318,0.566,0.538,��,11.3,�L
2023/04/26,12:20,0.551,0.795,0.487,1.002,0.699,0.318,0.567,0.537,��,11.8,�L
2023/04/26,12:30,0.551,0.794,0.487,1.006,0.700,0.320,0.569,0.538,��,9.5,�L
2023/04/26,12:40,0.552,0.795,0.486,1.001,0.697,0.319,0.566,0.538,��쓌,12.4,�L
2023/04/26,12:50,0.550,0.795,0.486,1.004,0.700,0.319,0.567,0.538,��,11.4,�L
2023/04/26,13:00,0.551,0.794,0.485,1.000,0.698,0.320,0.567,0.540,��쓌,11.6,�L
2023/04/26,13:10,0.550,0.792,0.485,1.000,0.700,0.318,0.568,0.538,��쓌,13.1,�L
2023/04/26,13:20,0.549,0.791,0.484,1.001,0.701,0.318,0.568,0.537,��쓌,12.7,�L
2023/04/26,13:30,0.551,0.791,0.484,1.001,0.699,0.320,0.567,0.537,��,10.8,�L
2023/04/26,13:40,0.549,0.790,0.485,1.002,0.697,0.320,0.566,0.538,��,12.7,�L
2023/04/26,13:50,0.550,0.789,0.483,1.000,0.696,0.318,0.565,0.535,��,9.0,�L
2023/04/26,14:00,0.548,0.788,0.483,1.001,0.695,0.318,0.565,0.538,��쓌,11.3,�L
2023/04/26,14:10,0.548,0.790,0.484,0.999,0.698,0.319,0.565,0.535,��,11.7,�L
2023/04/26,14:20,0.546,0.788,0.483,0.998,0.696,0.318,0.565,0.537,��쓌,13.3,�L
2023/04/26,14:30,0.546,0.787,0.481,0.999,0.693,0.317,0.564,0.535,��쓌,11.3,�L
2023/04/26,14:40,0.543,0.783,0.480,0.996,0.690,0.318,0.565,0.535,��,10.2,�L
2023/04/26,14:50,0.543,0.782,0.481,0.993,0.691,0.317,0.563,0.536,��,8.3,�L
2023/04/26,15:00,0.541,0.779,0.480,0.995,0.690,0.317,0.561,0.534,��,10.5,�L
2023/04/26,15:10,0.543,0.782,0.479,0.991,0.689,0.317,0.561,0.533,��쓌,10.6,�L
2023/04/26,15:20,0.542,0.780,0.479,0.991,0.689,0.316,0.563,0.535,��쓌,10.5,�L
2023/04/26,15:30,0.541,0.781,0.481,0.990,0.687,0.317,0.563,0.533,��,8.0,�L
2023/04/26,15:40,0.541,0.780,0.478,0.987,0.687,0.317,0.562,0.534,��,7.6,�L
2023/04/26,15:50,0.542,0.779,0.480,0.986,0.687,0.317,0.561,0.534,��,8.5,�L
2023/04/26,16:00,0.540,0.776,0.479,0.984,0.685,0.317,0.560,0.532,��,7.6,�L
2023/04/26,16:10,0.539,0.777,0.478,0.981,0.684,0.316,0.561,0.533,��쐼,6.8,�L
2023/04/26,16:20,0.537,0.770,0.475,0.975,0.678,0.315,0.558,0.533,��,3.2,�L
2023/04/26,16:30,0.529,0.764,0.474,0.963,0.670,0.311,0.556,0.530,���k��,7.4,�L
2023/04/26,16:40,0.531,0.767,0.475,0.963,0.673,0.313,0.557,0.529,���k��,6.4,�L
2023/04/26,16:50,0.536,0.771,0.476,0.969,0.679,0.316,0.558,0.532,�k��,6.3,�L
2023/04/26,17:00,0.538,0.773,0.477,0.968,0.679,0.316,0.557,0.532,�k��,6.4,�L
2023/04/26,17:10,0.539,0.776,0.479,0.971,0.680,0.317,0.559,0.532,�k�k��,8.8,�L
2023/04/26,17:20,0.539,0.775,0.478,0.976,0.681,0.319,0.559,0.533,�k�k��,8.8,�L
2023/04/26,17:30,0.540,0.776,0.479,0.976,0.680,0.317,0.558,0.535,�k��,9.3,�L
2023/04/26,17:40,0.540,0.776,0.480,0.975,0.681,0.318,0.560,0.533,�k�k��,7.9,�L
2023/04/26,17:50,0.542,0.778,0.479,0.976,0.681,0.317,0.561,0.533,�k��,6.2,�L
2023/04/26,18:00,0.542,0.777,0.479,0.977,0.682,0.318,0.561,0.533,�k�k��,5.5,�L
2023/04/26,18:10,0.543,0.779,0.480,0.977,0.684,0.319,0.561,0.533,�k��,5.1,�L
2023/04/26,18:20,0.543,0.779,0.479,0.979,0.683,0.318,0.561,0.533,�k��,4.8,��
2023/04/26,18:30,0.544,0.778,0.479,0.980,0.685,0.318,0.559,0.534,�k��,4.2,��
2023/04/26,18:40,0.542,0.782,0.481,0.979,0.684,0.318,0.559,0.535,�k��,3.5,��
2023/04/26,18:50,0.542,0.781,0.480,0.982,0.686,0.318,0.561,0.535,���k��,5.0,��
2023/04/26,19:00,0.543,0.782,0.479,0.980,0.688,0.320,0.560,0.536,�k��,5.4,��
2023/04/26,19:10,0.544,0.783,0.479,0.980,0.687,0.318,0.562,0.535,���k��,5.9,�L
2023/04/26,19:20,0.542,0.784,0.479,0.983,0.688,0.319,0.561,0.536,���k��,7.5,�L
2023/04/26,19:30,0.545,0.781,0.480,0.982,0.687,0.318,0.561,0.536,�k��,4.4,�L
2023/04/26,19:40,0.545,0.784,0.482,0.980,0.686,0.319,0.562,0.535,���k��,4.6,�L
2023/04/26,19:50,0.544,0.782,0.481,0.981,0.685,0.319,0.562,0.535,�k��,5.3,�L
2023/04/26,20:00,0.545,0.782,0.482,0.981,0.686,0.321,0.562,0.536,�k��,5.9,�L
2023/04/26,20:10,0.545,0.781,0.481,0.983,0.688,0.320,0.561,0.534,�k��,7.1,�L
2023/04/26,20:20,0.544,0.779,0.482,0.981,0.687,0.320,0.563,0.534,�k�k��,4.4,��
2023/04/26,20:30,0.543,0.782,0.480,0.980,0.689,0.320,0.563,0.536,�k�k��,6.7,��
2023/04/26,20:40,0.542,0.782,0.481,0.981,0.688,0.319,0.563,0.537,�k�k��,7.0,��
2023/04/26,20:50,0.542,0.782,0.480,0.980,0.689,0.320,0.564,0.537,�k�k��,5.2,��
2023/04/26,21:00,0.541,0.784,0.479,0.980,0.686,0.319,0.564,0.537,�k�k��,6.9,��
2023/04/26,21:10,0.541,0.782,0.482,0.980,0.687,0.318,0.563,0.537,�k�k��,6.7,��
2023/04/26,21:20,0.541,0.784,0.478,0.983,0.687,0.317,0.562,0.537,�k�k��,6.8,��
2023/04/26,21:30,0.542,0.782,0.479,0.982,0.689,0.319,0.562,0.537,�k�k��,9.6,��
2023/04/26,21:40,0.541,0.783,0.478,0.980,0.689,0.318,0.562,0.537,�k�k��,7.1,��
2023/04/26,21:50,0.542,0.781,0.477,0.984,0.688,0.318,0.562,0.536,�k��,5.6,��
2023/04/26,22:00,0.542,0.781,0.480,0.984,0.687,0.318,0.563,0.537,�k��,5.3,��
2023/04/26,22:10,0.540,0.783,0.478,0.984,0.687,0.317,0.563,0.537,�k��,6.0,��
2023/04/26,22:20,0.543,0.785,0.480,0.981,0.688,0.316,0.563,0.537,�k��,7.9,��
2023/04/26,22:30,0.541,0.784,0.479,0.981,0.690,0.317,0.562,0.537,�k��,7.8,��
2023/04/26,22:40,0.541,0.783,0.478,0.986,0.690,0.317,0.562,0.538,�k��,9.8,��
2023/04/26,22:50,0.542,0.785,0.479,0.982,0.689,0.317,0.563,0.536,�k��,11.7,��
2023/04/26,23:00,0.542,0.785,0.478,0.982,0.689,0.317,0.564,0.537,�k��,10.3,��
2023/04/26,23:10,0.543,0.785,0.479,0.982,0.688,0.317,0.564,0.537,�k�k��,9.5,��
2023/04/26,23:20,0.541,0.785,0.479,0.984,0.691,0.316,0.562,0.537,�k�k��,7.8,��
2023/04/26,23:30,0.542,0.785,0.479,0.982,0.689,0.317,0.563,0.535,�k�k��,7.5,��
2023/04/26,23:40,0.542,0.786,0.480,0.986,0.691,0.316,0.565,0.537,�k�k��,8.3,��
2023/04/26,23:50,0.542,0.787,0.480,0.982,0.688,0.317,0.563,0.535,�k�k��,9.3,��
